Location: T. Spence Memorial Observatory
(32.7356°N, 82.2098°W)
Time: 09:01:06
(UTC-04:00)

Daily predictions for brighter satellites

Satellite Brightness Start Highest point End
(mag) Time Altitude Azimuth Time Altitude Azimuth Time Altitude Azimuth
Cosmos 1076 Rocket 4.0 21:02:49 10° SSW 21:07:02 67° W 21:11:19 10° N
Cosmos 1441 Rocket 3.9 21:03:48 10° SSE 21:07:13 32° E 21:10:36 10° NNE
Cosmos 2322 Rocket 2.5 21:06:27 10° N 21:11:55 50° ENE 21:17:20 10° SE
AVUM R/B 3.1 21:12:53 10° S 21:14:53 30° ESE 21:17:01 10° NE
CZ-3C R/B 3.3 21:13:55 10° WSW 21:17:59 15° SSW 21:20:06 10° S
In-Cosmos 22 4.3 21:12:43 10° S 21:18:24 66° E 21:24:07 10° NNE
YAOGAN 11 4.3 21:16:08 10° SSE 21:20:19 55° ENE 21:24:35 10° N
Cosmos 1980 Rocket 3.2 21:15:22 10° NNW 21:20:48 47° WSW 21:26:13 10° S
Envisat 4.2 21:16:43 10° SE 21:20:50 26° ENE 21:24:58 10° NNE
Cosmos 2360 Rocket 3.7 21:17:03 10° NNE 21:21:14 21° ENE 21:25:25 10° ESE
SL-16 R/B 2.4 21:17:07 10° NNW 21:22:43 59° ENE 21:28:16 10° SSE
FENGYUN 3A 3.8 21:17:25 10° SSE 21:22:50 83° WSW 21:28:17 10° NNW
Cosmos 2026 Rocket 4.4 21:17:04 10° SSW 21:23:05 68° W 21:29:15 10° N
ERS-1 Rocket 3.3 21:19:56 10° SSE 21:24:45 49° ENE 21:29:35 10° N
H-2A R/B 2.8 21:28:03 11° SE 21:32:04 39° ENE 21:36:17 10° N
Cosmos 1908 4.4 21:29:25 10° NNE 21:32:43 26° ENE 21:35:07 15° SE
Cosmos 1777 Rocket 4.0 21:31:46 10° SSW 21:37:02 87° ESE 21:42:19 10° NNE
Cosmos 1328 Rocket 3.5 21:34:08 10° N 21:38:36 75° E 21:43:00 10° S
GPS 2-04 Rocket1 3.4 21:34:27 10° W 21:38:42 49° SSW 21:41:48 17° SE
NOSS 3-1 (C) 3.9 21:34:13 10° S 21:39:17 33° ESE 21:44:42 10° NE
Cosmos 1674 3.0 21:37:07 10° SSE 21:40:45 45° E 21:44:27 10° NNE
DELTA 2 R/B (1) 4.4 21:35:42 10° WNW 21:41:03 47° N 21:46:23 10° E
ATLAS CENTAUR R/B 2.6 21:43:38 10° NW 21:47:41 37° WSW 21:51:25 10° S
Cosmos 1939 Rocket 2.9 21:46:32 17° SSE 21:49:28 57° ENE 21:53:19 10° N
Cosmos 1833 4.2 21:44:52 10° SSW 21:50:36 88° WNW 21:56:19 10° NNE
S3M 4.1 21:46:49 10° N 21:52:56 80° W 21:59:04 10° S
CZ-2C R/B 1.2 21:55:41 29° NNW 21:55:41 29° NNW 21:56:32 10° NNW
Cosmos 1500 Rocket 4.0 21:51:28 10° SSW 21:55:47 63° W 22:00:08 10° N
Cosmos 2228 Rocket 4.0 21:51:56 10° NNW 21:56:16 49° W 22:00:37 10° SSW
Cosmos 405 3.4 21:54:39 10° N 21:58:10 46° E 21:59:42 28° SE
H-2A R/B 4.2 21:59:14 10° ENE 22:00:30 11° ENE 22:01:46 10° NE
YAOGAN 6 4.0 22:00:51 22° E 22:01:42 24° ENE 22:04:38 10° NNE
Cosmos 1437 Rocket 2.6 21:59:12 10° N 22:03:02 87° E 22:05:27 22° S
Meteor 2-2 Rocket 4.4 22:01:30 10° N 22:07:32 90° E 22:12:33 16° S
CZ-4 SHROUD 3.6 22:08:08 38° ESE 22:08:46 45° ENE 22:11:47 10° N
COSMOS 2428 4.0 22:05:55 10° N 22:10:36 26° ENE 22:13:01 20° E
Cosmos 1680 Rocket 3.8 22:06:49 10° N 22:11:55 50° ENE 22:14:22 28° SE
SPOT 1/Viking Rocket 4.4 22:10:08 24° ESE 22:12:15 34° ENE 22:16:52 10° N
Delta 2 Rocket 3.4 22:09:14 10° W 22:12:47 55° N 22:15:00 19° ENE
OAO 2 Rocket 3.4 22:08:42 10° SW 22:13:55 58° SSE 22:18:12 15° E
CZ-4B R/B 3.7 22:09:46 10° NNE 22:14:55 52° E 22:17:54 23° SSE
MetOp-A 4.3 22:12:54 26° SE 22:15:46 58° ENE 22:21:00 10° N
Cosmos 923 Rocket 3.9 22:10:52 10° NNW 22:16:05 75° ENE 22:18:47 29° SSE
ARGOS 4.0 22:18:17 26° ESE 22:20:18 35° ENE 22:25:10 10° N
Cosmos 1898 Rocket 3.9 22:19:09 31° SE 22:20:55 41° E 22:25:45 10° NNE
Cosmos 2219 Rocket 4.0 22:19:31 10° NNE 22:22:50 16° ENE 22:24:46 13° E
Cosmos 1328 3.7 22:21:48 24° S 22:24:03 83° W 22:28:01 10° N
CZ-4 R/B 4.2 22:19:24 10° NNE 22:24:06 43° E 22:25:21 36° SE
Cosmos 883 Rocket 4.4 22:18:41 10° N 22:24:54 90° W 22:28:59 22° S
Cosmos 2150 Rocket 4.3 22:22:49 29° SSE 22:25:11 48° ESE 22:30:25 10° NNE
Cosmos 2151 3.5 22:26:47 15° SSW 22:30:09 56° W 22:34:18 10° N
USA 245 4.1 22:32:07 23° NNE 22:32:07 23° NNE 22:33:21 10° N
Cosmos 773 Rocket 4.4 22:26:52 10° NNW 22:31:58 57° WSW 22:34:56 25° S
Sich 1 3.2 22:34:24 47° ESE 22:34:58 50° E 22:39:14 10° NNE
SL-08 RB Rocket 4.3 22:34:44 35° E 22:35:20 37° ENE 22:39:26 10° N
Cosmos 1633 Rocket 3.2 22:36:53 48° ESE 22:37:15 49° E 22:41:29 10° NNE
Cosmos 2219 3.7 22:34:25 10° SSW 22:40:06 63° WNW 22:45:49 10° NNE
Tiangong 1 2.3 22:38:22 10° W 22:41:20 42° NNW 22:42:38 26° NNE
NOSS 3-1 (A) 3.2 22:36:42 10° SSW 22:42:28 84° ESE 22:48:45 10° NNE
Cosmos 1726 2.8 22:39:54 10° N 22:43:05 40° ENE 22:43:05 40° ENE
SPOT 5 3.4 22:43:57 29° SSW 22:45:54 50° W 22:50:29 10° NNW
SL-14 R/B 3.1 22:48:33 77° S 22:48:49 88° E 22:52:49 10° N
Cosmos 1703 4.2 22:50:00 35° NE 22:50:00 35° NE 22:52:46 10° NNE
Cosmos 1151 Rocket 4.4 22:45:44 10° NNW 22:49:38 34° W 22:51:50 21° SW
SWAS 4.3 22:45:36 10° NNW 22:49:57 86° ENE 22:50:23 71° SE
Cosmos 2058 3.5 22:49:04 32° SW 22:50:40 54° W 22:54:42 10° N
Cosmos 2315 Rocket 4.0 22:44:36 10° N 22:50:48 79° W 22:53:45 33° S
Cosmos 1805 Rocket 4.1 22:50:01 30° SSW 22:52:00 58° W 22:56:23 10° N
Cosmos 2082 4.4 22:52:44 35° E 22:52:44 35° E 22:57:26 10° NE
Cosmos 1271 Rocket 4.0 22:49:01 10° NNE 22:51:39 29° NE 22:51:39 29° NE
Cosmos 2237 Rocket 3.9 22:49:01 10° NNE 22:52:57 19° ENE 22:54:11 18° ENE
Cosmos 2322 4.0 22:47:52 10° NNW 22:53:30 61° WSW 22:55:36 37° S
Cosmos 2322 Rocket 4.5 22:51:58 10° WNW 22:55:26 17° W 22:58:55 10° SW
Meteor 1-27 4.1 22:50:41 10° N 22:56:22 82° E 22:57:52 51° SSE
Cosmos 1241 Rocket 4.5 22:59:19 50° SE 23:00:10 53° ESE 23:06:12 10° NE
USA 32 4.1 22:55:57 10° N 23:01:08 58° E 23:01:35 56° ESE
NOAA 11 4.1 23:01:59 55° SSE 23:03:14 88° ENE 23:08:43 10° NNW
ATLAS 2AS CENTAUR R/B 3.1 23:03:26 44° SE 23:04:41 48° ESE 23:12:09 10° NE
Cosmos 2360 Rocket 2.9 23:00:03 10° NW 23:05:24 45° WSW 23:07:21 33° SSW
Meteor 2-10 4.5 23:02:34 10° N 23:08:10 51° E 23:08:39 50° E
Meteor 1-4 Rocket 3.6 23:07:12 10° N 23:09:49 41° NNE 23:09:49 41° NNE
Cosmos 1707 Rocket 4.0 23:10:57 10° NNW 23:15:11 52° W 23:15:29 50° WSW
Nadezhda 1 Rocket 4.1 23:10:59 10° N 23:16:55 53° E 23:17:27 52° E
Cosmos 1626 4.0 23:20:38 24° NNE 23:20:38 24° NNE 23:22:17 10° NNE
IGS 5A 4.4 23:21:55 40° NNE 23:21:55 40° NNE 23:24:58 10° N
Cosmos 1937 Rocket 3.6 23:20:01 50° SW 23:21:16 70° WNW 23:26:29 10° NNE
Cosmos 220 Rocket 4.3 23:22:01 66° WNW 23:22:01 66° WNW 23:26:16 10° N
Landsat 7 3.7 23:22:40 85° NNW 23:22:40 85° NNW 23:27:18 10° NNW
Cosmos 1745 Rocket 3.9 23:22:21 54° SSW 23:23:53 85° W 23:30:07 10° N
Cosmos 2227 Rocket 2.0 23:27:04 79° SE 23:27:15 81° ESE 23:32:56 10° NNE
ATLAS 3B R/B 4.4 23:22:17 10° N 23:27:17 21° NE 23:30:03 16° ENE
DELTA 2 R/B (1) 3.4 23:22:12 10° WNW 23:27:37 76° SW 23:27:37 76° SW
Cosmos 1470 Rocket 4.0 23:28:45 55° N 23:28:45 55° N 23:32:11 10° N
Cosmos 1933 Rocket 4.0 23:29:58 59° N 23:29:58 59° N 23:33:38 10° N
Cosmos 292 Rocket 3.9 23:27:17 10° NNW 23:31:27 67° N 23:31:27 67° N
Cosmos 1709 Rocket 4.4 23:32:45 45° E 23:32:45 45° E 23:38:07 10° NNE
Cosmos 990 Rocket 3.9 23:33:45 76° W 23:33:48 76° WNW 23:38:57 10° NNE
Terra 2.0 23:39:02 67° NNW 23:39:02 67° NNW 23:43:10 10° NNW
Spot 4 4.2 23:39:31 59° NNE 23:39:31 59° NNE 23:43:37 10° N
H-2A R/B 2.0 23:39:08 80° W 23:39:08 80° W 23:44:32 10° NNW
Cosmos 2333 Rocket 2.4 23:37:41 10° NNW 23:43:13 59° ENE 23:43:13 59° ENE
SL-16 R/B 3.8 23:41:18 10° N 23:45:42 23° ENE 23:45:52 23° ENE
NOSS 0 Rocket 3.8 23:43:05 10° NNW 23:49:15 78° ENE 23:49:19 78° ENE
Cosmos 1386 Rocket 4.4 23:50:12 66° WSW 23:50:45 70° W 23:56:45 10° N
COSMOS 2428 3.7 23:49:43 10° NW 23:54:51 36° WSW 23:55:01 36° WSW
Cosmos 1455 4.2 23:51:17 10° N 23:53:11 28° NNW 23:53:11 28° NNW
